period_start,C,m1,H,J0,J1,J2,J3,J4,J5,JA,JB,JC,JD,JJ,JK,JN,#
2016-08-19 00:00:51,0.01,1.34,0.00,20.93,27.01,30.66,14.75,45.01,1019.12,2038.99,2901.00,2758.98,3076.04,600.16,601.80,57.28,0000 0000 0000 0000 000000
2016-08-19 00:05:52,0.02,1.34,0.00,20.97,27.02,30.67,14.80,44.92,1019.14,2038.99,2900.86,2758.66,3075.99,600.17,601.81,57.34,0000 0000 0000 0000 000000
2016-08-19 00:10:53,0.04,1.34,0.00,21.01,27.02,30.64,14.71,45.01,1019.13,2038.99,2900.14,2758.04,3075.49,600.01,601.63,57.39,0000 0000 0000 0000 000000
2016-08-19 00:15:55,0.03,1.34,0.00,20.99,27.02,30.65,14.72,44.83,1019.09,2038.98,2899.77,2757.65,3074.90,599.91,601.54,57.44,0000 0000 0000 0000 000000
2016-08-19 00:20:56,0.04,1.34,0.00,20.97,27.02,30.54,14.72,44.78,1019.16,2038.96,2898.90,2756.89,3073.95,599.98,601.61,57.49,0000 0000 0000 0000 000000
2016-08-19 00:25:57,0.08,1.35,0.00,20.95,27.02,30.59,14.71,44.87,1019.38,2038.97,2897.81,2755.85,3072.81,600.15,601.91,57.54,0000 0000 0000 0000 000000
2016-08-19 00:30:58,0.03,1.35,0.00,20.93,27.02,30.66,14.79,45.08,1019.45,2038.97,2897.13,2755.27,3072.18,599.90,601.85,57.59,0000 0000 0000 0000 000000
2016-08-19 00:36:00,0.00,1.35,0.00,20.94,27.02,30.63,14.74,45.13,1019.51,2038.96,2896.99,2755.01,3071.99,599.99,601.87,57.64,0000 0000 0000 0000 000000
2016-08-19 00:41:01,0.02,1.35,0.00,20.94,27.02,30.69,14.74,44.99,1019.53,2038.91,2896.53,2754.90,3071.46,600.06,601.98,57.69,0000 0000 0000 0000 000000
2016-08-19 00:46:02,0.03,1.35,0.00,20.96,27.02,30.72,14.74,45.03,1019.54,2038.91,2896.03,2754.28,3071.02,600.05,601.80,57.74,0000 0000 0000 0000 000000
2016-08-19 00:51:04,0.00,1.35,0.00,20.93,27.02,30.72,14.74,44.98,1019.54,2038.83,2895.96,2754.03,3070.98,599.83,601.83,57.79,0000 0000 0000 0000 000000
2016-08-19 00:56:05,0.00,1.35,0.00,20.92,27.02,30.70,14.71,45.00,1019.49,2038.68,2895.38,2753.95,3070.31,600.04,601.91,57.84,0000 0000 0000 0000 000000
2016-08-19 01:01:06,0.03,1.36,0.00,20.95,27.02,30.67,14.70,44.88,1019.51,2038.56,2895.02,2753.25,3070.00,599.83,601.82,57.89,0000 0000 0000 0000 000000
2016-08-19 01:06:08,0.02,1.36,0.00,20.94,27.02,30.60,14.76,44.87,1019.48,2038.68,2894.89,2753.02,3069.96,600.61,602.45,57.94,0000 0000 0000 0000 000000
2016-08-19 01:11:09,0.03,1.36,0.00,20.97,27.02,30.60,14.70,44.93,1019.42,2038.78,2894.20,2753.00,3069.65,600.11,601.89,57.99,0000 0000 0000 0000 000000
2016-08-19 01:16:11,0.02,1.36,0.00,20.94,27.02,30.66,14.71,45.01,1019.30,2038.79,2893.79,2752.58,3069.07,599.70,601.51,58.04,0000 0000 0000 0000 000000
2016-08-19 01:21:12,0.04,1.36,0.00,20.96,27.02,30.66,14.74,44.90,1019.22,2038.84,2893.17,2752.02,3068.87,599.83,601.74,58.09,0000 0000 0000 0000 000000
2016-08-19 01:26:13,-0.00,1.36,0.00,20.97,27.03,30.71,14.72,45.08,1019.33,2038.77,2892.99,2751.99,3068.09,599.80,601.57,58.14,0000 0000 0000 0000 000000
2016-08-19 01:31:14,-0.02,1.36,0.00,20.96,27.04,30.72,14.74,44.92,1019.29,2038.66,2892.99,2751.98,3068.00,600.02,601.79,58.19,0000 0000 0000 0000 000000
2016-08-19 01:36:15,-0.03,1.36,0.00,20.97,27.05,30.70,14.82,45.09,1019.17,2038.22,2892.97,2751.95,3067.99,600.03,601.68,58.24,0000 0000 0000 0000 000000
2016-08-19 01:41:17,0.04,1.36,0.00,20.97,27.05,30.64,14.68,44.88,1019.08,2038.24,2892.57,2751.75,3067.98,599.72,601.37,58.29,0000 0000 0000 0000 000000
2016-08-19 01:46:18,0.01,1.36,0.00,20.98,27.05,30.63,14.75,44.97,1019.09,2038.19,2892.04,2751.17,3067.80,599.84,601.28,58.35,0000 0000 0000 0000 000000
2016-08-19 01:51:19,0.02,1.36,0.00,20.97,27.06,30.71,14.77,45.08,1019.08,2038.23,2891.94,2750.97,3067.11,599.80,601.41,58.40,0000 0000 0000 0000 000000
2016-08-19 01:56:20,0.11,1.37,0.00,20.95,27.07,30.75,14.70,45.01,1019.08,2038.13,2890.23,2749.45,3065.28,599.67,601.32,58.45,0000 0000 0000 0000 000000
2016-08-19 02:01:21,0.02,1.37,0.00,21.00,27.07,30.73,14.76,45.15,1019.07,2038.09,2889.69,2748.90,3064.79,600.14,601.68,58.50,0000 0000 0000 0000 000000
2016-08-19 02:06:22,0.09,1.37,0.00,21.03,27.08,30.70,14.80,44.88,1019.06,2038.05,2888.26,2747.66,3063.17,600.29,601.75,58.55,0000 0000 0000 0000 000000
2016-08-19 02:11:24,0.04,1.38,0.00,21.03,27.10,30.73,14.68,44.96,1019.07,2038.03,2887.42,2746.99,3062.30,599.66,601.15,58.60,0000 0000 0000 0000 000000
2016-08-19 02:16:25,0.03,1.38,0.00,20.98,27.10,30.72,14.76,45.11,1019.07,2038.00,2886.99,2746.34,3061.94,599.87,601.42,58.65,0000 0000 0000 0000 000000
2016-08-19 02:21:26,0.04,1.38,0.00,21.01,27.10,30.75,14.75,45.11,1019.07,2038.01,2886.23,2745.91,3061.11,599.95,601.59,58.70,0000 0000 0000 0000 000000
2016-08-19 02:26:28,0.06,1.38,0.00,21.02,27.11,30.71,14.80,45.07,1019.08,2038.00,2885.33,2745.09,3060.29,600.03,601.41,58.75,0000 0000 0000 0000 000000
2016-08-19 02:31:29,0.01,1.38,0.00,21.02,27.12,30.76,14.77,45.04,1019.07,2038.00,2884.95,2744.71,3059.97,600.15,601.58,58.80,0000 0000 0000 0000 000000
2016-08-19 02:36:30,0.04,1.39,0.00,21.05,27.12,30.72,14.76,45.12,1019.06,2038.00,2884.29,2744.08,3059.36,600.12,601.60,58.85,0000 0000 0000 0000 000000
2016-08-19 02:41:32,0.00,1.39,0.00,21.08,27.13,30.81,14.74,45.17,1019.06,2038.00,2884.00,2744.00,3059.00,600.15,601.46,58.90,0000 0000 0000 0000 000000
2016-08-19 02:46:33,0.00,1.39,0.00,21.04,27.15,30.82,14.75,45.13,1019.06,2038.00,2883.86,2743.97,3058.95,600.22,601.50,58.95,0000 0000 0000 0000 000000
2016-08-19 02:51:35,0.04,1.39,0.00,21.10,27.15,30.74,14.75,44.96,1019.06,2038.00,2883.24,2743.58,3058.48,599.87,601.17,59.00,0000 0000 0000 0000 000000
2016-08-19 02:56:36,0.01,1.39,0.00,21.09,27.15,30.78,14.73,45.13,1019.06,2038.00,2883.00,2743.03,3058.02,599.78,601.15,59.05,0000 0000 0000 0000 000000
2016-08-19 03:01:37,0.01,1.39,0.00,21.08,27.17,30.79,14.70,45.03,1019.06,2038.00,2882.77,2742.99,3057.92,599.90,601.21,59.10,0000 0000 0000 0000 000000
2016-08-19 03:06:38,0.04,1.39,0.00,21.11,27.17,30.80,14.78,45.02,1019.06,2038.00,2882.06,2742.75,3057.27,600.26,601.50,59.15,0000 0000 0000 0000 000000
2016-08-19 03:11:40,0.01,1.39,0.00,21.11,27.19,30.80,14.79,45.20,1019.06,2038.00,2881.99,2742.10,3057.01,600.04,601.41,59.20,0000 0000 0000 0000 000000
2016-08-19 03:16:41,0.00,1.39,0.00,21.16,27.20,30.79,14.71,45.01,1019.06,2038.00,2881.89,2742.01,3056.99,599.93,601.12,59.26,0000 0000 0000 0000 000000
2016-08-19 03:21:42,0.02,1.40,0.00,21.19,27.22,30.82,14.69,45.12,1019.06,2037.99,2881.26,2742.00,3056.63,600.12,601.30,59.31,0000 0000 0000 0000 000000
2016-08-19 03:26:44,0.00,1.40,0.00,21.22,27.22,30.80,14.77,45.08,1019.06,2037.99,2881.00,2741.98,3056.05,599.84,600.93,59.36,0000 0000 0000 0000 000000
2016-08-19 03:31:45,0.01,1.40,0.00,21.21,27.24,30.85,14.71,45.09,1019.06,2037.98,2880.93,2741.68,3056.00,599.66,600.70,59.41,0000 0000 0000 0000 000000
2016-08-19 03:36:46,0.03,1.40,0.00,21.23,27.25,30.81,14.72,45.00,1019.06,2037.98,2880.36,2741.20,3055.99,600.12,601.12,59.46,0000 0000 0000 0000 000000
2016-08-19 03:41:48,0.00,1.40,0.00,21.22,27.27,30.89,14.76,44.99,1019.06,2037.93,2880.03,2741.01,3055.88,600.19,601.17,59.51,0000 0000 0000 0000 000000
2016-08-19 03:46:49,-0.02,1.40,0.00,21.25,27.28,30.93,14.74,45.02,1019.06,2037.68,2880.00,2740.99,3055.29,600.03,601.09,59.56,0000 0000 0000 0000 000000
2016-08-19 03:51:50,0.00,1.40,0.00,21.33,27.30,30.93,14.68,45.08,1019.06,2037.50,2879.84,2740.98,3055.00,599.93,600.79,59.61,0000 0000 0000 0000 000000
2016-08-19 03:56:51,-0.01,1.40,0.00,21.34,27.32,30.95,14.74,45.10,1019.06,2037.29,2879.23,2740.90,3054.99,599.90,600.56,59.66,0000 0000 0000 0000 000000
2016-08-19 04:01:53,0.00,0.37,0.00,21.38,27.35,30.91,13.10,42.11,1019.06,2038.50,3321.20,3017.83,3422.05,534.70,535.65,0.00,0000 0000 0000 0000 000000
2016-08-19 04:06:54,0.00,0.00,0.00,21.39,27.37,30.93,14.79,48.17,1019.06,2038.97,3478.50,3117.60,3554.93,600.05,600.83,0.05,0000 0000 0000 0000 000000
2016-08-19 04:11:55,0.00,0.00,0.00,21.40,27.39,30.93,14.71,48.02,1019.06,2038.97,3477.34,3117.03,3554.08,599.83,600.64,0.10,0000 0000 0000 0000 000000
2016-08-19 04:16:57,0.00,0.00,0.00,21.51,27.41,30.97,14.76,47.89,1019.06,2038.92,3476.91,3116.99,3553.63,600.18,600.71,0.15,0000 0000 0000 0000 000000
2016-08-19 04:21:58,0.00,0.00,0.00,22.50,27.45,30.92,14.68,47.67,1019.06,2038.65,3476.09,3116.66,3552.97,600.34,598.68,0.20,0000 0000 0000 0000 000000
2016-08-19 04:26:59,-0.00,0.00,0.00,23.25,27.50,30.69,14.62,47.41,1019.07,2038.30,3475.82,3116.04,3552.19,600.21,597.20,0.25,0000 0000 0000 0000 000000
2016-08-19 04:32:00,0.01,0.00,0.00,23.43,27.56,30.52,14.49,47.35,1019.07,2038.03,3475.04,3115.80,3551.62,600.06,596.64,0.30,0000 0000 0000 0000 000000
2016-08-19 04:37:02,0.03,0.00,0.00,23.50,27.62,30.52,14.53,47.35,1019.07,2038.00,3474.22,3115.07,3550.81,600.27,596.80,0.35,0000 0000 0000 0000 000000
2016-08-19 04:42:03,0.02,0.00,0.00,23.59,27.68,30.60,14.48,47.33,1019.07,2037.99,3473.65,3114.86,3549.97,599.96,596.30,0.40,0000 0000 0000 0000 000000
2016-08-19 04:47:04,-0.02,0.00,0.00,23.70,27.74,30.67,14.52,47.39,1019.08,2037.53,3472.80,3114.06,3549.08,599.77,595.80,0.45,0000 0000 0000 0000 000000
2016-08-19 04:52:06,0.02,0.00,0.00,23.67,27.80,30.74,14.56,47.45,1019.07,2037.02,3471.94,3113.58,3548.24,600.18,596.32,0.50,0000 0000 0000 0000 000000
2016-08-19 04:57:07,0.03,0.00,0.00,23.76,27.87,30.81,14.51,47.38,1019.11,2036.99,3471.08,3113.01,3547.48,600.14,596.06,0.55,0000 0000 0000 0000 000000
2016-08-19 05:02:08,0.01,0.01,0.00,23.82,27.93,30.87,14.45,47.30,1019.17,2036.81,3470.55,3112.45,3546.89,600.07,595.91,0.60,0000 0000 0000 0000 000000
2016-08-19 05:07:10,-0.03,0.01,0.00,23.64,27.99,30.93,14.57,47.45,1019.23,2036.26,3469.92,3112.01,3546.10,600.17,596.50,0.65,0000 0000 0000 0000 000000
2016-08-19 05:12:11,0.02,0.00,0.00,23.53,28.04,31.01,14.54,47.51,1019.15,2036.03,3469.15,3111.80,3545.66,599.93,596.36,0.70,0000 0000 0000 0000 000000
2016-08-19 05:17:12,0.03,0.01,0.00,23.70,28.09,31.03,14.52,47.51,1019.09,2036.00,3468.66,3111.07,3545.01,600.27,596.34,0.75,0000 0000 0000 0000 000000
2016-08-19 05:22:13,0.02,0.01,0.00,23.92,28.14,31.04,14.60,47.42,1019.08,2035.95,3468.01,3110.75,3544.19,600.17,595.72,0.80,0000 0000 0000 0000 000000
2016-08-19 05:27:15,-0.02,0.01,0.00,23.95,28.19,31.07,14.45,47.35,1019.08,2035.59,3467.60,3110.08,3543.87,600.16,595.76,0.85,0000 0000 0000 0000 000000
2016-08-19 05:32:16,-0.01,0.01,0.00,23.94,28.24,31.13,14.58,47.45,1019.09,2035.06,3467.00,3109.97,3543.06,600.15,595.67,0.90,0000 0000 0000 0000 000000
2016-08-19 05:37:17,0.05,0.01,0.00,23.98,28.29,31.17,14.48,47.33,1019.09,2035.00,3466.30,3109.26,3542.29,599.99,595.47,0.95,0000 0000 0000 0000 000000
2016-08-19 05:42:18,0.15,0.01,0.00,24.02,28.33,31.20,14.50,47.36,1019.10,2034.99,3464.18,3106.88,3539.71,600.01,595.36,1.00,0000 0000 0000 0000 000000
2016-08-19 05:47:20,0.02,0.02,0.00,24.04,28.37,31.23,14.46,47.37,1019.15,2034.96,3463.02,3106.00,3538.42,599.89,595.32,1.05,0000 0000 0000 0000 000000
2016-08-19 05:52:21,-0.04,0.02,0.00,24.08,28.41,31.25,14.58,47.42,1019.28,2034.47,3462.58,3105.70,3538.00,599.93,595.36,1.10,0000 0000 0000 0000 000000
2016-08-19 05:57:22,0.01,0.02,0.00,24.11,28.44,31.27,14.53,47.48,1019.40,2034.11,3462.03,3105.11,3537.51,600.20,595.64,1.15,0000 0000 0000 0000 000000
2016-08-19 06:02:23,0.00,0.02,0.00,24.14,28.48,31.28,14.45,47.53,1019.46,2034.01,3461.92,3105.00,3537.02,600.07,595.43,1.20,0000 0000 0000 0000 000000
2016-08-19 06:07:25,0.01,0.02,0.00,24.16,28.51,31.30,14.44,47.46,1019.50,2034.00,3461.30,3104.98,3536.97,599.86,595.30,1.25,0000 0000 0000 0000 000000
2016-08-19 06:12:26,0.02,0.02,0.00,24.16,28.53,31.31,14.46,47.51,1019.51,2033.99,3461.01,3104.58,3536.26,600.01,595.45,1.30,0000 0000 0000 0000 000000
2016-08-19 06:17:27,0.01,0.02,0.00,24.15,28.56,31.34,14.54,47.42,1019.52,2033.97,3460.93,3104.07,3536.00,600.14,595.63,1.35,0000 0000 0000 0000 000000
2016-08-19 06:22:28,0.01,0.02,0.00,24.17,28.58,31.36,14.42,47.52,1019.52,2033.94,3460.32,3104.00,3535.94,599.98,595.37,1.40,0000 0000 0000 0000 000000
2016-08-19 06:27:30,-0.02,0.02,0.00,24.22,28.61,31.35,14.42,47.47,1019.51,2033.70,3460.01,3103.98,3535.27,599.79,595.01,1.45,0000 0000 0000 0000 000000
2016-08-19 06:32:31,-0.01,0.02,0.00,24.19,28.62,31.36,14.50,47.42,1019.52,2033.36,3459.95,3103.72,3535.00,599.85,595.24,1.50,0000 0000 0000 0000 000000
2016-08-19 06:37:32,0.00,0.02,0.00,24.28,28.65,31.36,14.48,47.52,1019.49,2033.10,3459.56,3103.24,3534.96,600.05,595.26,1.55,0000 0000 0000 0000 000000
2016-08-19 06:42:34,0.02,0.02,0.00,24.33,28.66,31.36,14.41,47.51,1019.50,2033.04,3459.03,3103.01,3534.30,600.00,594.87,1.60,0000 0000 0000 0000 000000
2016-08-19 06:47:35,-0.00,0.02,0.00,24.33,28.68,31.37,14.43,47.39,1019.50,2033.01,3458.97,3103.00,3534.00,599.97,595.01,1.65,0000 0000 0000 0000 000000
2016-08-19 06:52:36,0.00,0.02,0.00,24.34,28.70,31.40,14.42,47.51,1019.50,2033.00,3458.71,3102.99,3533.99,599.57,594.67,1.70,0000 0000 0000 0000 000000
2016-08-19 06:57:37,0.01,0.02,0.00,24.38,28.71,31.40,14.47,47.46,1019.52,2033.00,3458.12,3102.92,3533.92,600.33,595.24,1.75,0000 0000 0000 0000 000000
2016-08-19 07:02:38,0.02,0.02,0.00,24.38,28.72,31.40,14.45,47.40,1019.51,2033.00,3458.01,3102.45,3533.33,600.11,595.10,1.80,0000 0000 0000 0000 000000
2016-08-19 07:07:39,0.00,0.02,0.00,24.41,28.74,31.40,14.46,47.48,1019.49,2032.99,3457.95,3102.04,3533.01,600.00,594.93,1.85,0000 0000 0000 0000 000000
2016-08-19 07:12:41,0.01,0.02,0.00,24.39,28.75,31.40,14.49,47.45,1019.51,2032.97,3457.48,3102.00,3532.98,599.71,594.64,1.90,0000 0000 0000 0000 000000
2016-08-19 07:17:42,0.01,0.02,0.00,24.43,28.76,31.40,14.44,47.56,1019.54,2032.95,3457.03,3102.00,3532.62,599.92,594.81,1.96,0000 0000 0000 0000 000000
2016-08-19 07:22:43,0.00,0.02,0.00,24.43,28.77,31.41,14.45,47.47,1019.54,2032.86,3456.98,3101.96,3532.05,599.87,594.67,2.01,0000 0000 0000 0000 000000
2016-08-19 07:27:44,0.01,0.02,0.00,24.45,28.77,31.42,14.50,47.52,1019.53,2032.85,3456.62,3101.72,3532.00,599.97,594.79,2.06,0000 0000 0000 0000 000000
2016-08-19 07:32:45,0.02,0.02,0.00,24.47,28.77,31.42,14.50,47.51,1019.52,2032.85,3456.08,3101.39,3531.99,600.32,595.05,2.11,0000 0000 0000 0000 000000
2016-08-19 07:37:47,-0.01,0.02,0.00,24.44,28.78,31.43,14.45,47.45,1019.53,2032.71,3456.00,3101.10,3531.92,599.49,594.47,2.16,0000 0000 0000 0000 000000
2016-08-19 07:42:48,-0.02,0.02,0.00,24.47,28.79,31.43,14.50,47.37,1019.55,2032.36,3455.98,3101.01,3531.56,600.00,594.86,2.21,0000 0000 0000 0000 000000
2016-08-19 07:47:49,0.01,0.02,0.00,24.48,28.80,31.43,14.43,47.36,1019.55,2032.30,3455.93,3101.00,3531.11,599.94,594.64,2.26,0000 0000 0000 0000 000000
2016-08-19 07:52:50,0.00,0.02,0.00,24.45,28.80,31.45,14.46,47.46,1019.55,2032.25,3455.66,3101.00,3531.03,599.91,594.84,2.31,0000 0000 0000 0000 000000
2016-08-19 07:57:52,0.01,0.02,0.00,24.47,28.80,31.42,14.50,47.35,1019.55,2032.31,3455.17,3101.00,3531.01,600.24,595.04,2.36,0000 0000 0000 0000 000000
2016-08-19 08:02:53,0.00,0.02,0.00,24.46,28.80,31.44,14.52,47.33,1019.55,2032.36,3455.03,3101.00,3531.00,599.91,594.83,2.41,0000 0000 0000 0000 000000
2016-08-19 08:07:54,-0.01,0.02,0.00,24.46,28.80,31.44,14.52,47.42,1019.55,2032.18,3455.00,3101.00,3530.99,600.33,595.15,2.46,0000 0000 0000 0000 000000
2016-08-19 08:12:55,0.01,0.02,0.00,24.46,28.80,31.45,14.55,47.40,1019.55,2032.24,3455.00,3100.99,3530.98,600.40,595.27,2.51,0000 0000 0000 0000 000000
2016-08-19 08:17:57,0.01,0.02,0.00,24.48,28.80,31.44,14.43,47.33,1019.55,2032.27,3455.00,3100.99,3530.96,600.01,594.79,2.56,0000 0000 0000 0000 000000
2016-08-19 08:22:58,-0.01,0.02,0.00,24.48,28.80,31.44,14.51,47.33,1019.55,2032.30,3454.99,3100.99,3530.93,600.35,595.10,2.61,0000 0000 0000 0000 000000
2016-08-19 08:27:59,0.01,0.02,0.00,24.46,28.80,31.45,14.53,47.47,1019.55,2032.37,3454.96,3100.98,3530.81,600.51,595.30,2.66,0000 0000 0000 0000 000000
2016-08-19 08:33:00,0.01,0.02,0.00,24.48,28.80,31.44,14.42,47.38,1019.56,2032.43,3454.84,3100.97,3530.54,599.38,594.20,2.71,0000 0000 0000 0000 000000
2016-08-19 08:38:02,0.01,0.02,0.00,24.48,28.80,31.45,14.47,47.25,1019.56,2032.47,3454.66,3100.99,3530.32,600.27,595.03,2.76,0000 0000 0000 0000 000000
2016-08-19 08:43:03,-0.01,0.02,0.00,24.49,28.79,31.45,14.54,47.36,1019.56,2032.23,3454.17,3100.97,3530.08,600.13,594.95,2.81,0000 0000 0000 0000 000000
2016-08-19 08:48:04,0.02,0.03,0.00,24.50,28.79,31.45,14.45,47.30,1019.60,2032.48,3454.12,3100.97,3530.07,600.14,594.90,2.86,0000 0000 0000 0000 000000
2016-08-19 08:53:05,-0.01,0.03,0.00,24.45,28.79,31.46,14.38,47.32,1019.60,2032.38,3454.02,3100.96,3530.02,599.49,594.32,2.91,0000 0000 0000 0000 000000
2016-08-19 08:58:07,0.00,0.03,0.00,24.47,28.79,31.44,14.44,47.44,1019.66,2032.44,3454.00,3100.92,3530.00,599.93,594.84,2.96,0000 0000 0000 0000 000000
2016-08-19 09:03:08,0.01,0.03,0.00,24.44,28.78,31.47,14.46,47.34,1019.64,2032.45,3454.00,3100.88,3530.00,599.86,594.81,3.01,0000 0000 0000 0000 000000
2016-08-19 09:08:09,0.00,0.03,0.00,24.46,28.78,31.44,14.50,47.31,1019.60,2032.52,3454.00,3100.88,3530.00,599.81,594.66,3.06,0000 0000 0000 0000 000000
2016-08-19 09:13:10,0.01,0.03,0.00,24.46,28.77,31.46,14.46,47.33,1019.59,2032.60,3453.98,3100.82,3529.98,600.24,595.09,3.11,0000 0000 0000 0000 000000
2016-08-19 09:18:11,-0.01,0.03,0.00,24.48,28.77,31.44,14.45,47.27,1019.57,2032.36,3453.79,3100.44,3529.95,599.87,594.59,3.16,0000 0000 0000 0000 000000
2016-08-19 09:23:12,0.01,0.03,0.00,24.48,28.77,31.44,14.44,47.23,1019.65,2032.36,3453.35,3100.22,3529.89,599.90,594.72,3.21,0000 0000 0000 0000 000000
2016-08-19 09:28:14,0.00,0.03,0.00,24.46,28.77,31.45,14.48,47.25,1019.73,2032.36,3453.10,3100.13,3529.56,600.07,595.06,3.26,0000 0000 0000 0000 000000
2016-08-19 09:33:15,0.00,0.03,0.00,24.47,28.77,31.44,14.51,47.29,1019.78,2032.20,3453.03,3100.07,3529.22,600.33,595.19,3.31,0000 0000 0000 0000 000000
2016-08-19 09:38:17,0.01,0.03,0.00,24.48,28.77,31.44,14.42,47.36,1019.94,2032.29,3453.00,3100.07,3529.05,599.76,594.77,3.36,0000 0000 0000 0000 000000
2016-08-19 09:43:18,-0.01,0.03,0.00,24.45,28.77,31.46,14.49,47.48,1019.97,2032.19,3453.00,3100.03,3529.03,600.06,594.99,3.41,0000 0000 0000 0000 000000
2016-08-19 09:48:19,0.00,0.03,0.00,24.47,28.77,31.46,14.39,47.33,1020.01,2032.14,3452.99,3100.00,3529.00,599.94,595.03,3.46,0000 0000 0000 0000 000000
2016-08-19 09:53:21,0.01,0.03,0.00,24.47,28.77,31.45,14.53,47.33,1019.98,2032.26,3452.97,3100.01,3528.99,600.27,595.28,3.51,0000 0000 0000 0000 000000
2016-08-19 09:58:22,0.09,0.03,0.00,24.48,28.77,31.44,14.45,47.41,1019.98,2032.15,3451.45,3098.69,3527.54,599.91,594.95,3.56,0000 0000 0000 0000 000000
2016-08-19 10:03:23,0.02,0.03,0.00,24.46,28.77,31.44,14.48,47.43,1019.93,2032.11,3450.41,3098.01,3526.62,600.07,595.08,3.61,0000 0000 0000 0000 000000
2016-08-19 10:08:25,0.13,0.04,0.00,24.48,28.77,31.43,14.47,47.48,1019.88,2032.27,3448.79,3096.36,3524.50,599.78,594.69,3.66,0000 0000 0000 0000 000000
2016-08-19 10:13:26,0.03,0.04,0.00,24.49,28.77,31.44,14.49,47.57,1019.83,2032.27,3448.02,3095.57,3523.54,600.00,594.91,3.71,0000 0000 0000 0000 000000
2016-08-19 10:18:27,-0.00,0.04,0.00,24.50,28.77,31.44,14.49,47.57,1019.75,2032.16,3447.99,3095.06,3523.02,599.91,594.79,3.76,0000 0000 0000 0000 000000
2016-08-19 10:23:28,0.01,0.04,0.00,24.50,28.78,31.43,14.47,47.55,1019.68,2032.12,3447.94,3095.00,3523.00,599.85,594.70,3.81,0000 0000 0000 0000 000000
2016-08-19 10:28:30,0.00,0.04,0.00,24.49,28.79,31.44,14.28,47.46,1019.79,2032.09,3447.46,3094.97,3522.96,599.80,594.75,3.86,0000 0000 0000 0000 000000
2016-08-19 10:33:31,0.05,0.04,0.00,24.47,28.79,31.44,14.47,47.44,1019.82,2032.09,3446.92,3094.13,3522.09,599.81,594.77,3.91,0000 0000 0000 0000 000000
2016-08-19 10:38:32,0.01,0.04,0.00,24.46,28.80,31.45,14.51,47.54,1019.78,2032.10,3446.36,3094.01,3521.99,600.28,595.22,3.96,0000 0000 0000 0000 000000
2016-08-19 10:43:34,0.00,0.04,0.00,24.45,28.80,31.46,14.49,47.64,1019.67,2032.07,3446.07,3094.01,3521.95,600.03,595.05,4.01,0000 0000 0000 0000 000000
2016-08-19 10:48:35,-0.00,0.05,0.00,24.44,28.80,31.45,14.48,47.48,1019.65,2032.07,3446.01,3094.00,3521.86,600.27,595.18,4.06,0000 0000 0000 0000 000000
2016-08-19 10:53:36,0.01,0.05,0.00,24.41,28.80,31.47,14.45,47.54,1019.59,2032.05,3446.00,3094.00,3521.39,600.02,595.00,4.11,0000 0000 0000 0000 000000
2016-08-19 10:58:37,0.00,0.05,0.00,24.41,28.79,31.48,14.55,47.54,1019.66,2032.02,3445.98,3094.00,3521.04,600.23,595.08,4.16,0000 0000 0000 0000 000000
2016-08-19 11:03:38,0.00,0.05,0.00,24.43,28.79,31.47,14.44,47.54,1019.74,2032.01,3445.96,3093.99,3521.01,599.88,594.88,4.21,0000 0000 0000 0000 000000
2016-08-19 11:08:39,-0.00,0.05,0.00,24.41,28.78,31.47,14.41,47.41,1019.71,2032.03,3445.94,3093.99,3521.01,599.93,595.00,4.26,0000 0000 0000 0000 000000
2016-08-19 11:13:40,0.01,0.05,0.00,24.42,28.77,31.45,14.46,47.48,1019.72,2032.07,3445.66,3093.85,3520.93,599.79,594.74,4.31,0000 0000 0000 0000 000000
2016-08-19 11:18:41,0.03,0.05,0.00,24.39,28.77,31.47,14.49,47.45,1019.75,2032.06,3445.01,3093.08,3520.22,600.16,595.25,4.37,0000 0000 0000 0000 000000
2016-08-19 11:23:42,0.00,0.05,0.00,24.42,28.77,31.46,14.49,47.40,1019.65,2032.04,3444.88,3093.01,3520.03,600.02,595.01,4.42,0000 0000 0000 0000 000000
2016-08-19 11:28:44,0.00,0.05,0.00,24.41,28.77,31.46,14.58,47.51,1019.59,2032.03,3444.78,3093.01,3520.01,600.27,595.09,4.47,0000 0000 0000 0000 000000
2016-08-19 11:33:45,0.01,0.05,0.00,24.41,28.77,31.47,14.50,47.52,1019.58,2032.06,3444.38,3093.00,3520.00,600.16,595.11,4.52,0000 0000 0000 0000 000000
2016-08-19 11:38:46,0.00,0.05,0.00,24.43,28.77,31.47,14.48,47.47,1019.56,2032.05,3444.07,3093.00,3520.00,600.02,594.82,4.57,0000 0000 0000 0000 000000
2016-08-19 11:43:47,-0.00,0.05,0.00,24.44,28.77,31.47,14.39,47.38,1019.56,2032.05,3444.00,3093.00,3520.00,599.69,594.58,4.62,0000 0000 0000 0000 000000
2016-08-19 11:48:49,0.01,0.05,0.00,24.42,28.76,31.47,14.54,47.52,1019.56,2032.10,3444.00,3092.99,3520.00,600.07,594.97,4.67,0000 0000 0000 0000 000000
2016-08-19 11:53:50,-0.01,0.05,0.00,24.42,28.75,31.47,14.44,47.37,1019.56,2032.10,3443.98,3092.99,3520.00,599.87,594.81,4.72,0000 0000 0000 0000 000000
2016-08-19 11:58:51,0.00,0.05,0.00,24.40,28.75,31.48,14.43,47.39,1019.57,2032.09,3443.95,3092.99,3519.98,599.75,594.70,4.77,0000 0000 0000 0000 000000
2016-08-19 12:03:53,0.01,0.05,0.00,24.36,28.75,31.50,14.50,47.40,1019.56,2032.10,3443.68,3092.84,3519.76,600.21,595.21,4.82,0000 0000 0000 0000 000000
2016-08-19 12:08:54,0.07,0.05,0.00,24.36,28.75,31.49,14.51,47.50,1019.56,2032.12,3442.34,3091.96,3518.31,600.02,595.08,4.87,0000 0000 0000 0000 000000
2016-08-19 12:13:55,0.00,0.05,0.00,24.39,28.75,31.49,14.47,47.48,1019.56,2032.12,3442.04,3091.82,3518.02,599.82,594.80,4.92,0000 0000 0000 0000 000000
2016-08-19 12:18:56,0.00,0.05,0.00,24.38,28.75,31.47,14.52,47.46,1019.55,2032.13,3442.00,3091.82,3518.01,600.02,594.95,4.97,0000 0000 0000 0000 000000
2016-08-19 12:23:58,0.01,0.05,0.00,24.33,28.75,31.48,14.49,47.53,1019.55,2032.25,3442.00,3091.72,3518.01,600.38,595.30,5.02,0000 0000 0000 0000 000000
2016-08-19 12:28:59,0.02,0.06,0.00,24.33,28.74,31.49,14.50,47.53,1019.55,2032.25,3441.99,3091.34,3518.00,600.08,595.19,5.07,0000 0000 0000 0000 000000
2016-08-19 12:34:00,-0.01,0.06,0.00,24.34,28.73,31.47,14.48,47.52,1019.55,2032.16,3441.95,3091.18,3517.99,600.04,595.14,5.12,0000 0000 0000 0000 000000
2016-08-19 12:39:01,0.02,0.06,0.00,24.29,28.72,31.49,14.45,47.42,1019.55,2032.35,3441.94,3091.24,3517.99,599.95,595.13,5.17,0000 0000 0000 0000 000000
2016-08-19 12:44:02,0.01,0.06,0.00,24.33,28.72,31.48,14.42,47.38,1019.55,2032.50,3441.83,3091.26,3517.99,599.85,594.92,5.22,0000 0000 0000 0000 000000
2016-08-19 12:49:03,0.01,0.06,0.00,24.30,28.72,31.47,14.49,47.45,1019.55,2032.45,3441.28,3091.11,3517.97,600.14,595.33,5.27,0000 0000 0000 0000 000000
2016-08-19 12:54:05,0.03,0.06,0.00,24.27,28.72,31.48,14.59,47.48,1019.55,2032.72,3441.05,3091.08,3517.96,599.92,595.20,5.32,0000 0000 0000 0000 000000